Flag for U.S.A. Weather past 2 weeks in Cupertino, California, U.S.A.

Now
61 °F

Clear.


Feels Like: 61 °F
Forecast: 55 / 67 °F
Wind: 3 mph from West

Location: Moffett Field

Current Time: Oct 25, 2014 at 10:35:40 PM

Latest Report: Oct 25, 2014 at 9:56 PM


Visibility: 10 mi

Pressure: 30.14 "Hg

Humidity: 93%

Dew point: 59 °F

Location of CupertinoLocation

Historic Weather in Cupertino — Graph

°F

Cupertino temperature yesterday

Maximum temperature yesterday: 73 °F (at 12:56 PM)
Minimum temperature yesterday: 55 °F (at 4:56 AM)
Average temperature yesterday: 64 °F

Past Weeks' High & Low Weather Summary

 TemperatureHumidityPressure
High89 °F (Oct 12, 3:56 PM)100% (Oct 11, 12:56 AM)30.13 "Hg (Oct 11, 12:56 AM)
Low52 °F (Oct 22, 6:56 AM)11% (Oct 12, 4:56 PM)29.83 "Hg (Oct 14, 6:03 PM)
Average65 °F69%29.98 "Hg
* Reported Oct 10 8:56 PM — Oct 25 8:56 PM, Cupertino, Weather by CustomWeather, © 2014

Note: Actual official high and low records may vary slightly from our data, if they occured in-between our weather recording intervals... More about our weather records

Advertising

Cupertino weather history for previous 24 hours

 ConditionsComfort  
Time TempWeatherWind HumidityBarometerVisibility
8:56 PM
Oct 25
63 °FClear.3 mph78%30.12 "Hg10 mi
7:56 PM64 °FPassing clouds.5 mph81%30.11 "Hg10 mi
6:56 PM66 °FBroken clouds.6 mph63%30.09 "Hg10 mi
5:56 PM67 °FSunny.3 mph59%30.08 "Hg10 mi
4:56 PM69 °FScattered clouds.7 mph53%30.08 "Hg10 mi
3:56 PM71 °FScattered clouds.10 mph49%30.08 "Hg10 mi
2:56 PM71 °FScattered clouds.9 mph51%30.07 "Hg10 mi
1:56 PM72 °FScattered clouds.9 mph52%30.08 "Hg10 mi
12:56 PM71 °FScattered clouds.9 mph49%30.08 "Hg10 mi
11:56 AM69 °FSunny.8 mph57%30.08 "Hg10 mi
10:56 AM67 °FSunny.9 mph71%30.07 "Hg10 mi
9:56 AM61 °FSunny.7 mph97%30.06 "Hg10 mi
8:56 AM60 °FLight rain. Fog.8 mph96%30.03 "Hg6 mi
7:56 AM61 °FLight rain. Overcast.7 mph100%30.01 "Hg10 mi
6:56 AM61 °FRain. Fog.3 mph97%30.00 "Hg2 mi
5:56 AM63 °FLight rain. Overcast.10 mph87%29.95 "Hg10 mi
4:56 AM65 °FOvercast.10 mph78%29.93 "Hg10 mi
3:56 AM67 °FPassing clouds.13 mph66%29.93 "Hg10 mi
2:56 AM65 °FClear.6 mph73%29.94 "Hg10 mi
1:56 AM65 °FMostly cloudy.7 mph70%29.95 "Hg10 mi
12:56 AM65 °FOvercast.13 mph76%29.95 "Hg10 mi
11:56 PM
Oct 24
65 °FPassing clouds.15 mph81%29.96 "Hg10 mi
10:56 PM64 °FClear.8 mph84%29.94 "Hg10 mi
Weather by CustomWeather, © 2014

See weather overviewHow to use our weather pages